Location: Claflin County Park
(44.8478°N, 87.5507°W)
Time: 07:01:27
(UTC+00:00)

Cosmos 1553 Rocket - Pass Details

Date: 10 December 2025
Orbit: 942 x 1006 km, 82.9° (Epoch: 13 January)

Event Time Altitude Azimuth Distance (km) Brightness Sun altitude
Rises 00:10:24 0° 169° (S) 3,610 7.0 -20.7°
Reaches altitude 10° 00:12:56 10° 165° (SSE) 2,676 6.3 -21.1°
Maximum altitude 00:18:48 51° 91° (E) 1,200 4.0 -22.1°
Enters shadow 00:21:06 35° 38° (NE) 1,527 4.6 -22.5°
